station,date_time,water_elev
365757089085401,05/02/2011 22:48,314.29
365757089085401,05/02/2011 22:49,314.45
365757089085401,05/02/2011 22:50,314.64
365757089085401,05/02/2011 22:51,314.83
365757089085401,05/02/2011 22:52,315.01
365757089085401,05/02/2011 22:53,315.19
365757089085401,05/02/2011 22:54,315.36
365757089085401,05/02/2011 22:55,315.53
365757089085401,05/02/2011 22:56,315.7
365757089085401,05/02/2011 22:57,315.82
365757089085401,05/02/2011 22:58,315.96
365757089085401,05/02/2011 22:59,316.1
365757089085401,05/02/2011 23:00,316.25
365757089085401,05/02/2011 23:01,316.38
365757089085401,05/02/2011 23:02,316.57
365757089085401,05/02/2011 23:03,316.71
365757089085401,05/02/2011 23:04,316.85
365757089085401,05/02/2011 23:05,316.99
365757089085401,05/02/2011 23:06,317.12
365757089085401,05/02/2011 23:07,317.22
365757089085401,05/02/2011 23:08,317.32
365757089085401,05/02/2011 23:09,317.43
365757089085401,05/02/2011 23:10,317.56
365757089085401,05/02/2011 23:11,317.67
365757089085401,05/02/2011 23:12,317.79
365757089085401,05/02/2011 23:13,317.95
365757089085401,05/02/2011 23:14,318.05
365757089085401,05/02/2011 23:15,318.15
365757089085401,05/02/2011 23:16,318.3
365757089085401,05/02/2011 23:17,318.47
365757089085401,05/02/2011 23:18,318.52
365757089085401,05/02/2011 23:19,318.57
365757089085401,05/02/2011 23:20,318.69
365757089085401,05/02/2011 23:21,318.76
365757089085401,05/02/2011 23:22,318.82
365757089085401,05/02/2011 23:23,318.91
365757089085401,05/02/2011 23:24,319.01
365757089085401,05/02/2011 23:25,319.05
365757089085401,05/02/2011 23:26,319.13
365757089085401,05/02/2011 23:27,319.21
365757089085401,05/02/2011 23:28,319.26
365757089085401,05/02/2011 23:29,319.33
365757089085401,05/02/2011 23:30,319.37
365757089085401,05/02/2011 23:31,319.45
365757089085401,05/02/2011 23:32,319.49
365757089085401,05/02/2011 23:33,319.55
365757089085401,05/02/2011 23:34,319.61
365757089085401,05/02/2011 23:35,319.65
365757089085401,05/02/2011 23:36,319.69
365757089085401,05/02/2011 23:37,319.76
365757089085401,05/02/2011 23:38,319.8
365757089085401,05/02/2011 23:39,319.86
365757089085401,05/02/2011 23:40,319.92
365757089085401,05/02/2011 23:41,319.98
365757089085401,05/02/2011 23:42,320.03
365757089085401,05/02/2011 23:43,320.08
365757089085401,05/02/2011 23:44,320.13
365757089085401,05/02/2011 23:45,320.17
365757089085401,05/02/2011 23:46,320.23
365757089085401,05/02/2011 23:47,320.27
365757089085401,05/02/2011 23:48,320.32
365757089085401,05/02/2011 23:49,320.36
365757089085401,05/02/2011 23:50,320.41
365757089085401,05/02/2011 23:51,320.45
365757089085401,05/02/2011 23:52,320.48
365757089085401,05/02/2011 23:53,320.54
365757089085401,05/02/2011 23:54,320.58
365757089085401,05/02/2011 23:55,320.62
365757089085401,05/02/2011 23:56,320.66
365757089085401,05/02/2011 23:57,320.71
365757089085401,05/02/2011 23:58,320.75
365757089085401,05/02/2011 23:59,320.8
365757089085401,05/03/2011 00:00,320.83
365757089085401,05/03/2011 00:01,320.86
365757089085401,05/03/2011 00:02,320.91
365757089085401,05/03/2011 00:03,320.96
365757089085401,05/03/2011 00:04,321
365757089085401,05/03/2011 00:05,321.03
365757089085401,05/03/2011 00:06,321.08
365757089085401,05/03/2011 00:07,321.12
365757089085401,05/03/2011 00:08,321.16
365757089085401,05/03/2011 00:09,321.2
365757089085401,05/03/2011 00:10,321.24
365757089085401,05/03/2011 00:11,321.27
365757089085401,05/03/2011 00:12,321.31
365757089085401,05/03/2011 00:13,321.34
365757089085401,05/03/2011 00:14,321.37
365757089085401,05/03/2011 00:15,321.42
365757089085401,05/03/2011 00:16,321.44
365757089085401,05/03/2011 00:17,321.5
365757089085401,05/03/2011 00:18,321.51
365757089085401,05/03/2011 00:19,321.54
365757089085401,05/03/2011 00:20,321.6
365757089085401,05/03/2011 00:21,321.62
365757089085401,05/03/2011 00:22,321.66
365757089085401,05/03/2011 00:23,321.69
365757089085401,05/03/2011 00:24,321.7
365757089085401,05/03/2011 00:25,321.76
365757089085401,05/03/2011 00:26,321.78
365757089085401,05/03/2011 00:27,321.8
365757089085401,05/03/2011 00:28,321.84
365757089085401,05/03/2011 00:29,321.88
365757089085401,05/03/2011 00:30,321.89
365757089085401,05/03/2011 00:31,321.93
365757089085401,05/03/2011 00:32,321.95
365757089085401,05/03/2011 00:33,321.99
365757089085401,05/03/2011 00:34,322.01
365757089085401,05/03/2011 00:35,322.02
365757089085401,05/03/2011 00:36,322.05
365757089085401,05/03/2011 00:37,322.08
365757089085401,05/03/2011 00:38,322.1
365757089085401,05/03/2011 00:39,322.14
365757089085401,05/03/2011 00:40,322.17
365757089085401,05/03/2011 00:41,322.19
365757089085401,05/03/2011 00:42,322.21
365757089085401,05/03/2011 00:43,322.24
365757089085401,05/03/2011 00:44,322.25
365757089085401,05/03/2011 00:45,322.27
365757089085401,05/03/2011 00:46,322.3
365757089085401,05/03/2011 00:47,322.33
365757089085401,05/03/2011 00:48,322.34
365757089085401,05/03/2011 00:49,322.36
365757089085401,05/03/2011 00:50,322.38
365757089085401,05/03/2011 00:51,322.4
365757089085401,05/03/2011 00:52,322.43
365757089085401,05/03/2011 00:53,322.44
365757089085401,05/03/2011 00:54,322.47
365757089085401,05/03/2011 00:55,322.48
365757089085401,05/03/2011 00:56,322.5
365757089085401,05/03/2011 00:57,322.51
365757089085401,05/03/2011 00:58,322.53
365757089085401,05/03/2011 00:59,322.54
365757089085401,05/03/2011 01:00,322.57
365757089085401,05/03/2011 01:01,322.6
365757089085401,05/03/2011 01:02,322.61
365757089085401,05/03/2011 01:03,322.61
365757089085401,05/03/2011 01:04,322.64
365757089085401,05/03/2011 01:05,322.64
365757089085401,05/03/2011 01:06,322.67
365757089085401,05/03/2011 01:07,322.69
365757089085401,05/03/2011 01:08,322.72
365757089085401,05/03/2011 01:09,322.71
365757089085401,05/03/2011 01:10,322.72
365757089085401,05/03/2011 01:11,322.75
365757089085401,05/03/2011 01:12,322.74
365757089085401,05/03/2011 01:13,322.75
365757089085401,05/03/2011 01:14,322.77
365757089085401,05/03/2011 01:15,322.79
365757089085401,05/03/2011 01:16,322.81
365757089085401,05/03/2011 01:17,322.81
365757089085401,05/03/2011 01:18,322.81
365757089085401,05/03/2011 01:19,322.84
365757089085401,05/03/2011 01:20,322.86
365757089085401,05/03/2011 01:21,322.86
365757089085401,05/03/2011 01:22,322.87
365757089085401,05/03/2011 01:23,322.89
365757089085401,05/03/2011 01:24,322.89
365757089085401,05/03/2011 01:25,322.9
365757089085401,05/03/2011 01:26,322.92
365757089085401,05/03/2011 01:27,322.92
365757089085401,05/03/2011 01:28,322.95
365757089085401,05/03/2011 01:29,322.94
365757089085401,05/03/2011 01:30,322.96
365757089085401,05/03/2011 01:31,322.97
365757089085401,05/03/2011 01:32,322.98
365757089085401,05/03/2011 01:33,322.99
365757089085401,05/03/2011 01:34,322.99
365757089085401,05/03/2011 01:35,322.99
365757089085401,05/03/2011 01:36,323
365757089085401,05/03/2011 01:37,323
365757089085401,05/03/2011 01:38,323.02
365757089085401,05/03/2011 01:39,323.04
365757089085401,05/03/2011 01:40,323.03
365757089085401,05/03/2011 01:41,323.03
365757089085401,05/03/2011 01:42,323.06
365757089085401,05/03/2011 01:43,323.05
365757089085401,05/03/2011 01:44,323.05
365757089085401,05/03/2011 01:45,323.06
365757089085401,05/03/2011 01:46,323.06
365757089085401,05/03/2011 01:47,323.06
365757089085401,05/03/2011 01:48,323.07
365757089085401,05/03/2011 01:49,323.09
365757089085401,05/03/2011 01:50,323.1
365757089085401,05/03/2011 01:51,323.09
365757089085401,05/03/2011 01:52,323.1
365757089085401,05/03/2011 01:53,323.11
365757089085401,05/03/2011 01:54,323.11
365757089085401,05/03/2011 01:55,323.12
365757089085401,05/03/2011 01:56,323.13
365757089085401,05/03/2011 01:57,323.14
365757089085401,05/03/2011 01:58,323.15
365757089085401,05/03/2011 01:59,323.16
365757089085401,05/03/2011 02:00,323.17
365757089085401,05/03/2011 02:01,323.16
365757089085401,05/03/2011 02:02,323.18
365757089085401,05/03/2011 02:03,323.19
365757089085401,05/03/2011 02:04,323.17
365757089085401,05/03/2011 02:05,323.19
365757089085401,05/03/2011 02:06,323.21
365757089085401,05/03/2011 02:07,323.22
365757089085401,05/03/2011 02:08,323.21
365757089085401,05/03/2011 02:09,323.21
365757089085401,05/03/2011 02:10,323.23
365757089085401,05/03/2011 02:11,323.24
365757089085401,05/03/2011 02:12,323.24
365757089085401,05/03/2011 02:13,323.26
365757089085401,05/03/2011 02:14,323.26
365757089085401,05/03/2011 02:15,323.27
365757089085401,05/03/2011 02:16,323.28
365757089085401,05/03/2011 02:17,323.28
365757089085401,05/03/2011 02:18,323.28
365757089085401,05/03/2011 02:19,323.29
365757089085401,05/03/2011 02:20,323.3
365757089085401,05/03/2011 02:21,323.3
365757089085401,05/03/2011 02:22,323.31
365757089085401,05/03/2011 02:23,323.31
365757089085401,05/03/2011 02:24,323.32
365757089085401,05/03/2011 02:25,323.33
365757089085401,05/03/2011 02:26,323.33
365757089085401,05/03/2011 02:27,323.35
365757089085401,05/03/2011 02:28,323.34
365757089085401,05/03/2011 02:29,323.35
365757089085401,05/03/2011 02:30,323.35
365757089085401,05/03/2011 02:31,323.35
365757089085401,05/03/2011 02:32,323.36
365757089085401,05/03/2011 02:33,323.37
365757089085401,05/03/2011 02:34,323.36
365757089085401,05/03/2011 02:35,323.38
365757089085401,05/03/2011 02:36,323.37
365757089085401,05/03/2011 02:37,323.38
365757089085401,05/03/2011 02:38,323.38
365757089085401,05/03/2011 02:39,323.38
365757089085401,05/03/2011 02:40,323.41
365757089085401,05/03/2011 02:41,323.4
365757089085401,05/03/2011 02:42,323.4
365757089085401,05/03/2011 02:43,323.41
365757089085401,05/03/2011 02:44,323.42
365757089085401,05/03/2011 02:45,323.43
365757089085401,05/03/2011 02:46,323.42
365757089085401,05/03/2011 02:47,323.43
365757089085401,05/03/2011 02:48,323.43
365757089085401,05/03/2011 02:49,323.44
365757089085401,05/03/2011 02:50,323.45
365757089085401,05/03/2011 02:51,323.45
365757089085401,05/03/2011 02:52,323.45
365757089085401,05/03/2011 02:53,323.48
365757089085401,05/03/2011 02:54,323.47
365757089085401,05/03/2011 02:55,323.49
365757089085401,05/03/2011 02:56,323.48
365757089085401,05/03/2011 02:57,323.49
365757089085401,05/03/2011 02:58,323.48
365757089085401,05/03/2011 02:59,323.5
365757089085401,05/03/2011 03:00,323.51
365757089085401,05/03/2011 03:01,323.52
365757089085401,05/03/2011 03:02,323.51
365757089085401,05/03/2011 03:03,323.52
365757089085401,05/03/2011 03:04,323.54
365757089085401,05/03/2011 03:05,323.54
365757089085401,05/03/2011 03:06,323.54
365757089085401,05/03/2011 03:07,323.56
365757089085401,05/03/2011 03:08,323.55
365757089085401,05/03/2011 03:09,323.57
365757089085401,05/03/2011 03:10,323.58
365757089085401,05/03/2011 03:11,323.57
365757089085401,05/03/2011 03:12,323.58
365757089085401,05/03/2011 03:13,323.58
365757089085401,05/03/2011 03:14,323.59
365757089085401,05/03/2011 03:15,323.58
365757089085401,05/03/2011 03:16,323.6
365757089085401,05/03/2011 03:17,323.62
365757089085401,05/03/2011 03:18,323.61
365757089085401,05/03/2011 03:19,323.62
365757089085401,05/03/2011 03:20,323.63
365757089085401,05/03/2011 03:21,323.63
365757089085401,05/03/2011 03:22,323.64
365757089085401,05/03/2011 03:23,323.64
365757089085401,05/03/2011 03:24,323.64
365757089085401,05/03/2011 03:25,323.65
365757089085401,05/03/2011 03:26,323.66
365757089085401,05/03/2011 03:27,323.66
365757089085401,05/03/2011 03:28,323.68
365757089085401,05/03/2011 03:29,323.68
365757089085401,05/03/2011 03:30,323.69
365757089085401,05/03/2011 03:31,323.69
365757089085401,05/03/2011 03:32,323.7
365757089085401,05/03/2011 03:33,323.71
365757089085401,05/03/2011 03:34,323.71
365757089085401,05/03/2011 03:35,323.71
365757089085401,05/03/2011 03:36,323.73
365757089085401,05/03/2011 03:37,323.72
365757089085401,05/03/2011 03:38,323.74
365757089085401,05/03/2011 03:39,323.74
365757089085401,05/03/2011 03:40,323.74
365757089085401,05/03/2011 03:41,323.75
365757089085401,05/03/2011 03:42,323.75
365757089085401,05/03/2011 03:43,323.75
365757089085401,05/03/2011 03:44,323.75
365757089085401,05/03/2011 03:45,323.77
365757089085401,05/03/2011 03:46,323.77
365757089085401,05/03/2011 03:47,323.78
365757089085401,05/03/2011 03:48,323.78
365757089085401,05/03/2011 03:49,323.79
365757089085401,05/03/2011 03:50,323.8
365757089085401,05/03/2011 03:51,323.78
365757089085401,05/03/2011 03:52,323.8
365757089085401,05/03/2011 03:53,323.8
365757089085401,05/03/2011 03:54,323.81
365757089085401,05/03/2011 03:55,323.81
365757089085401,05/03/2011 03:56,323.82
365757089085401,05/03/2011 03:57,323.83
365757089085401,05/03/2011 03:58,323.82
365757089085401,05/03/2011 03:59,323.83
365757089085401,05/03/2011 04:00,323.84
365757089085401,05/03/2011 04:01,323.86
365757089085401,05/03/2011 04:02,323.85
365757089085401,05/03/2011 04:03,323.86
365757089085401,05/03/2011 04:04,323.89
365757089085401,05/03/2011 04:05,323.89
365757089085401,05/03/2011 04:06,323.88
365757089085401,05/03/2011 04:07,323.89
365757089085401,05/03/2011 04:08,323.89
365757089085401,05/03/2011 04:09,323.9
365757089085401,05/03/2011 04:10,323.9
365757089085401,05/03/2011 04:11,323.9
365757089085401,05/03/2011 04:12,323.91
365757089085401,05/03/2011 04:13,323.91
365757089085401,05/03/2011 04:14,323.92
365757089085401,05/03/2011 04:15,323.92
365757089085401,05/03/2011 04:16,323.92
365757089085401,05/03/2011 04:17,323.94
365757089085401,05/03/2011 04:18,323.95
365757089085401,05/03/2011 04:19,323.94
365757089085401,05/03/2011 04:20,323.94
365757089085401,05/03/2011 04:21,323.94
365757089085401,05/03/2011 04:22,323.95
365757089085401,05/03/2011 04:23,323.94
365757089085401,05/03/2011 04:24,323.96
365757089085401,05/03/2011 04:25,323.96
365757089085401,05/03/2011 04:26,323.95
365757089085401,05/03/2011 04:27,323.96
365757089085401,05/03/2011 04:28,323.97
365757089085401,05/03/2011 04:29,323.97
365757089085401,05/03/2011 04:30,323.98
365757089085401,05/03/2011 04:31,324
365757089085401,05/03/2011 04:32,324
365757089085401,05/03/2011 04:33,324
365757089085401,05/03/2011 04:34,324
365757089085401,05/03/2011 04:35,324.02
365757089085401,05/03/2011 04:36,324.02
365757089085401,05/03/2011 04:37,324.02
365757089085401,05/03/2011 04:38,324.02
365757089085401,05/03/2011 04:39,324.02
365757089085401,05/03/2011 04:40,324.04
365757089085401,05/03/2011 04:41,324.04
365757089085401,05/03/2011 04:42,324.03
365757089085401,05/03/2011 04:43,324.04
365757089085401,05/03/2011 04:44,324.06
365757089085401,05/03/2011 04:45,324.05
365757089085401,05/03/2011 04:46,324.06
365757089085401,05/03/2011 04:47,324.04
365757089085401,05/03/2011 04:48,324.06
365757089085401,05/03/2011 04:49,324.07
365757089085401,05/03/2011 04:50,324.07
365757089085401,05/03/2011 04:51,324.07
365757089085401,05/03/2011 04:52,324.07
365757089085401,05/03/2011 04:53,324.08
365757089085401,05/03/2011 04:54,324.08
365757089085401,05/03/2011 04:55,324.08
365757089085401,05/03/2011 04:56,324.08
365757089085401,05/03/2011 04:57,324.1
365757089085401,05/03/2011 04:58,324.09
365757089085401,05/03/2011 04:59,324.09
365757089085401,05/03/2011 05:00,324.08
365757089085401,05/03/2011 05:01,324.1
365757089085401,05/03/2011 05:02,324.1
365757089085401,05/03/2011 05:03,324.1
365757089085401,05/03/2011 05:04,324.11
365757089085401,05/03/2011 05:05,324.1
365757089085401,05/03/2011 05:06,324.11
365757089085401,05/03/2011 05:07,324.11
365757089085401,05/03/2011 05:08,324.11
365757089085401,05/03/2011 05:09,324.11
365757089085401,05/03/2011 05:10,324.11
365757089085401,05/03/2011 05:11,324.11
365757089085401,05/03/2011 05:12,324.12
365757089085401,05/03/2011 05:13,324.13
365757089085401,05/03/2011 05:14,324.13
365757089085401,05/03/2011 05:15,324.12
365757089085401,05/03/2011 05:16,324.12
365757089085401,05/03/2011 05:17,324.12
365757089085401,05/03/2011 05:18,324.13
365757089085401,05/03/2011 05:19,324.13
365757089085401,05/03/2011 05:20,324.14
365757089085401,05/03/2011 05:21,324.14
365757089085401,05/03/2011 05:22,324.14
365757089085401,05/03/2011 05:23,324.14
365757089085401,05/03/2011 05:24,324.16
365757089085401,05/03/2011 05:25,324.14
365757089085401,05/03/2011 05:26,324.15
365757089085401,05/03/2011 05:27,324.15
365757089085401,05/03/2011 05:28,324.15
365757089085401,05/03/2011 05:29,324.15
365757089085401,05/03/2011 05:30,324.15
365757089085401,05/03/2011 05:31,324.16
365757089085401,05/03/2011 05:32,324.16
365757089085401,05/03/2011 05:33,324.15
365757089085401,05/03/2011 05:34,324.15
365757089085401,05/03/2011 05:35,324.16
365757089085401,05/03/2011 05:36,324.16
365757089085401,05/03/2011 05:37,324.16
365757089085401,05/03/2011 05:38,324.16
365757089085401,05/03/2011 05:39,324.16
365757089085401,05/03/2011 05:40,324.17
365757089085401,05/03/2011 05:41,324.16
365757089085401,05/03/2011 05:42,324.18
365757089085401,05/03/2011 05:43,324.17
365757089085401,05/03/2011 05:44,324.17
365757089085401,05/03/2011 05:45,324.17
365757089085401,05/03/2011 05:46,324.17
365757089085401,05/03/2011 05:47,324.18
365757089085401,05/03/2011 05:48,324.18
365757089085401,05/03/2011 05:49,324.17
365757089085401,05/03/2011 05:50,324.18
365757089085401,05/03/2011 05:51,324.18
365757089085401,05/03/2011 05:52,324.18
365757089085401,05/03/2011 05:53,324.18
365757089085401,05/03/2011 05:54,324.18
365757089085401,05/03/2011 05:55,324.19
365757089085401,05/03/2011 05:56,324.19
365757089085401,05/03/2011 05:57,324.19
365757089085401,05/03/2011 05:58,324.19
365757089085401,05/03/2011 05:59,324.18
365757089085401,05/03/2011 06:00,324.18
365757089085401,05/03/2011 06:01,324.19
365757089085401,05/03/2011 06:02,324.18
365757089085401,05/03/2011 06:03,324.19
365757089085401,05/03/2011 06:04,324.2
365757089085401,05/03/2011 06:05,324.19
365757089085401,05/03/2011 06:06,324.2
365757089085401,05/03/2011 06:07,324.2
365757089085401,05/03/2011 06:08,324.21
365757089085401,05/03/2011 06:09,324.21
365757089085401,05/03/2011 06:10,324.21
365757089085401,05/03/2011 06:11,324.22
365757089085401,05/03/2011 06:12,324.21
365757089085401,05/03/2011 06:13,324.22
365757089085401,05/03/2011 06:14,324.21
365757089085401,05/03/2011 06:15,324.22
365757089085401,05/03/2011 06:16,324.22
365757089085401,05/03/2011 06:17,324.22
365757089085401,05/03/2011 06:18,324.22
365757089085401,05/03/2011 06:19,324.23
365757089085401,05/03/2011 06:20,324.22
365757089085401,05/03/2011 06:21,324.22
365757089085401,05/03/2011 06:22,324.22
365757089085401,05/03/2011 06:23,324.23
365757089085401,05/03/2011 06:24,324.22
365757089085401,05/03/2011 06:25,324.22
365757089085401,05/03/2011 06:26,324.21
365757089085401,05/03/2011 06:27,324.22
365757089085401,05/03/2011 06:28,324.23
365757089085401,05/03/2011 06:29,324.22
365757089085401,05/03/2011 06:30,324.21
365757089085401,05/03/2011 06:31,324.23
365757089085401,05/03/2011 06:32,324.22
365757089085401,05/03/2011 06:33,324.23
365757089085401,05/03/2011 06:34,324.22
365757089085401,05/03/2011 06:35,324.23
365757089085401,05/03/2011 06:36,324.23
365757089085401,05/03/2011 06:37,324.23
365757089085401,05/03/2011 06:38,324.23
365757089085401,05/03/2011 06:39,324.24
365757089085401,05/03/2011 06:40,324.23
365757089085401,05/03/2011 06:41,324.22
365757089085401,05/03/2011 06:42,324.23
365757089085401,05/03/2011 06:43,324.22
365757089085401,05/03/2011 06:44,324.24
365757089085401,05/03/2011 06:45,324.24
365757089085401,05/03/2011 06:46,324.24
365757089085401,05/03/2011 06:47,324.24
365757089085401,05/03/2011 06:48,324.23
365757089085401,05/03/2011 06:49,324.23
365757089085401,05/03/2011 06:50,324.24
365757089085401,05/03/2011 06:51,324.22
365757089085401,05/03/2011 06:52,324.23
365757089085401,05/03/2011 06:53,324.24
365757089085401,05/03/2011 06:54,324.24
365757089085401,05/03/2011 06:55,324.23
365757089085401,05/03/2011 06:56,324.23
365757089085401,05/03/2011 06:57,324.23
365757089085401,05/03/2011 06:58,324.23
365757089085401,05/03/2011 06:59,324.24
365757089085401,05/03/2011 07:00,324.24
365757089085401,05/03/2011 07:01,324.24
365757089085401,05/03/2011 07:02,324.24
365757089085401,05/03/2011 07:03,324.23
365757089085401,05/03/2011 07:04,324.23
365757089085401,05/03/2011 07:05,324.23
365757089085401,05/03/2011 07:06,324.22
365757089085401,05/03/2011 07:07,324.23
365757089085401,05/03/2011 07:08,324.22
365757089085401,05/03/2011 07:09,324.23
365757089085401,05/03/2011 07:10,324.23
365757089085401,05/03/2011 07:11,324.24
365757089085401,05/03/2011 07:12,324.23
365757089085401,05/03/2011 07:13,324.23
365757089085401,05/03/2011 07:14,324.24
365757089085401,05/03/2011 07:15,324.22
365757089085401,05/03/2011 07:16,324.24
365757089085401,05/03/2011 07:17,324.24
365757089085401,05/03/2011 07:18,324.24
365757089085401,05/03/2011 07:19,324.24
365757089085401,05/03/2011 07:20,324.24
365757089085401,05/03/2011 07:21,324.24
365757089085401,05/03/2011 07:22,324.24
365757089085401,05/03/2011 07:23,324.23
365757089085401,05/03/2011 07:24,324.23
365757089085401,05/03/2011 07:25,324.24
365757089085401,05/03/2011 07:26,324.22
365757089085401,05/03/2011 07:27,324.24
365757089085401,05/03/2011 07:28,324.22
365757089085401,05/03/2011 07:29,324.22
365757089085401,05/03/2011 07:30,324.24
365757089085401,05/03/2011 07:31,324.23
365757089085401,05/03/2011 07:32,324.23
365757089085401,05/03/2011 07:33,324.22
365757089085401,05/03/2011 07:34,324.22
365757089085401,05/03/2011 07:35,324.22
365757089085401,05/03/2011 07:36,324.23
365757089085401,05/03/2011 07:37,324.22
365757089085401,05/03/2011 07:38,324.23
365757089085401,05/03/2011 07:39,324.23
365757089085401,05/03/2011 07:40,324.24
365757089085401,05/03/2011 07:41,324.24
365757089085401,05/03/2011 07:42,324.22
365757089085401,05/03/2011 07:43,324.23
365757089085401,05/03/2011 07:44,324.24
365757089085401,05/03/2011 07:45,324.23
365757089085401,05/03/2011 07:46,324.24
365757089085401,05/03/2011 07:47,324.24
365757089085401,05/03/2011 07:48,324.24
365757089085401,05/03/2011 07:49,324.23
365757089085401,05/03/2011 07:50,324.23
365757089085401,05/03/2011 07:51,324.23
365757089085401,05/03/2011 07:52,324.23
365757089085401,05/03/2011 07:53,324.23
365757089085401,05/03/2011 07:54,324.23
365757089085401,05/03/2011 07:55,324.23
365757089085401,05/03/2011 07:56,324.24
365757089085401,05/03/2011 07:57,324.23
365757089085401,05/03/2011 07:58,324.23
365757089085401,05/03/2011 07:59,324.23
365757089085401,05/03/2011 08:00,324.22
365757089085401,05/03/2011 08:01,324.22
365757089085401,05/03/2011 08:02,324.22
365757089085401,05/03/2011 08:03,324.24
365757089085401,05/03/2011 08:04,324.22
365757089085401,05/03/2011 08:05,324.22
365757089085401,05/03/2011 08:06,324.21
365757089085401,05/03/2011 08:07,324.22
365757089085401,05/03/2011 08:08,324.21
365757089085401,05/03/2011 08:09,324.21
365757089085401,05/03/2011 08:10,324.22
365757089085401,05/03/2011 08:11,324.21
365757089085401,05/03/2011 08:12,324.22
365757089085401,05/03/2011 08:13,324.22
365757089085401,05/03/2011 08:14,324.22
365757089085401,05/03/2011 08:15,324.21
365757089085401,05/03/2011 08:16,324.22
365757089085401,05/03/2011 08:17,324.22
365757089085401,05/03/2011 08:18,324.22
365757089085401,05/03/2011 08:19,324.22
365757089085401,05/03/2011 08:20,324.22
365757089085401,05/03/2011 08:21,324.22
365757089085401,05/03/2011 08:22,324.23
365757089085401,05/03/2011 08:23,324.21
365757089085401,05/03/2011 08:24,324.21
365757089085401,05/03/2011 08:25,324.21
365757089085401,05/03/2011 08:26,324.21
365757089085401,05/03/2011 08:27,324.22
365757089085401,05/03/2011 08:28,324.22
365757089085401,05/03/2011 08:29,324.21
365757089085401,05/03/2011 08:30,324.21
365757089085401,05/03/2011 08:31,324.2
365757089085401,05/03/2011 08:32,324.21
365757089085401,05/03/2011 08:33,324.21